Погода в Оленеке

Погода в Оленеке : погода сейчас, прогноз погоды и архив. Всё, что Вы хотите узнать о погоде в Оленеке!

Хотите узнать прогноз погоды в Оленеке? Тогда Вам сюда: Погода в Оленеке

Поиск расширенной информации на нашем сайте:

Другие новости

Новости СМИ2

Главная страница сайта

Новости сайта

03.07.2017

Напоминаем, что на нашем специализированном сайте Метеоцентр.Азия вы можете получить высокодетализированные автоматические прогнозы погоды по пунктам России, СНГ и мира в авиационном формате (включающие направление и скорость ветра, видимость, явления погоды, количество и форму облачности, нижнюю и верхнюю границу облачности).


Погода в Оленеке - сегодня

Время (UTC), дата Ветер
(°,м/с) 
Видим.   Явления Облачность Т
(°С)
Тd
(°С)
f(%) Тe
(°С)
Pmin
(гПа)
dP
(гПа)
Po
(мм)
O2
(г/м3)
Тmin Tmax R s Состояние
почвы
00 18.09.17 340 (С) 20000 м    9/5 600 м средняя 
[Sc|Ac As]
-1.9 -3.4 89 -4  1017  742  301  -2.6        замёрзшая 
03 18.09.17 330 (СЗ) 20000 м    3/0 верхняя 
[Ci fib]
+1.4 -3.4 70 +1  1017.1  0.4  742  298           
06 18.09.17 360 (С) 20000 м    ясно 
+5.4 -3.8 51 +5  1016.6  -0.1  742  294           
09 18.09.17 350 (С) 20000 м    ясно 
+5.7 -4.5 48 +5  1016.9  0.3  743  294           
12 18.09.17 030 (СВ) н/о    н/о 
+1.2 -4.1 68 -1  1018.1  0.7  743  299    +6       
15 18.09.17 050 (СВ) н/о    н/о 
-1.8 -4.5 82 -1  1019  0.6  743  302           
18 18.09.17 310 (СЗ) н/о    н/о 
-2 -4.8 81 -1  1019.1  0.1  744  302           
21 18.09.17 310 (СЗ) н/о    н/о 
-5.4 -6 96 -5  1019.6  0.1  744  306           
00 19.09.17 270 (З) 20000 м    ясно 
-5.8 -6.9 92 -5  1019.5  -0.1  744  307  -6.8        замёрзшая 
03 19.09.17 240 (ЮЗ) 20000 м    3/0 верхняя 
[Ci fib]
+0 -3.7 76 +1  1018.8  -0.1  743  300           
06 19.09.17 240 (ЮЗ) 20000 м    8/0 верхняя 
[Ci sp]
+5 -3.3 55 +6  1017.8  -0.5  743  294           
09 19.09.17 280 (З) 20000 м    8/0 верхняя 
[Ci sp]
+6.2 -4.2 47 +5  1016.8  -0.9  742  293           
12 19.09.17 310 (СЗ) н/о    н/о 
+1.8 -4.7 62 +1  1017.1  0.1  742  298    +6.5       
15 19.09.17 310 (СЗ) н/о    н/о 
+0.2 -5.2 67 -1  1016.8  -0.4  742  299           
18 19.09.17 300 (СЗ) н/о    н/о 
-2.5 -5.8 78 -4  1016.4  -0.7  742  302           
21 19.09.17 290 (З) н/о    н/о 
-6.2 -7.2 93 -6  1015.5  -1.2  741  306           
00 20.09.17 310 (СЗ) 20000 м    10/0 средняя, верхняя 
[Ac trans|Ci sp]
-5.1 -6.1 93 -6  1014.2  -1.2  740  304  -6.7        замёрзшая 
03 20.09.17 270 (З) 20000 м    10/0 верхняя 
[Cs]
-0.4 -3.8 78 -2  1012.3  -1.4  739  298           
06 20.09.17 260 (З) 20000 м    10/0 средняя, верхняя 
[Ac As|Cs]
+2.8 -2.4 69 +1  1010.6  -1.3  738  294           
09 20.09.17 260 (З) 20000 м    10/0 средняя 
[Ac As]
+3.4 -1.6 70 +3  1009.8  -0.7  737  294           
12 20.09.17 260 (З) 20000 м    10/0 средняя 
[Ac und]
+2.9 -1.9 71 +2  1009.3  -0.5  737  294    +3.5       
15 20.09.17 270 (З) н/о    н/о 
+2.2 -1.7 75 +2  1008.7  -0.7  736  294           
18 20.09.17 260 (З) н/о    н/о 
+1.6 -2.1 76 +2  1007.9  -0.8  736  295           
21 20.09.17 300 (СЗ) н/о    н/о 
+0.7 -2.4 80 1007.6  -0.4  735  296           
00 21.09.17 260 (З) 20000 м    10/0 средняя 
[As op]
+0.7 -2.2 81 +1  1008.3  0.6  736  296  +0.2        замёрзшая 
Время (UTC), дата Ветер
(°,м/с) 
Видим.   Явления Облачность Т
(°С)
Тd
(°С)
f(%) Тe
(°С)
Pmin
(гПа)
dP
(гПа)
Po
(мм)
O2
(г/м3)
Тmin Tmax R s Состояние
почвы

Для получения пояснительной информации подведите курсор к названию столбца.

ПОГОДА в Оленеке - архив

Всё, что Вы хотите узнать о погоде в Оленеке - удобно и подробно!

Выберите нужную дату (начиная с 1 января 2015* года) и нажмите кнопку "Найти".
Будут отображены архивные сводки погоды по пункту Оленек, начиная с указанной даты.


Отображать данные в формате CSV (для использования в таблицах Excel)


Внимание! Наш архив погоды предназначен исключительно для личного некоммерческого использования в познавательных целях. Если Вам необходимы официальные справки о состоянии погоды (для производственных, юридических, коммерческих и т.п. целей), обращайтесь в органы Росгидромета.

*Примечание: данная дата относится к архиву по метеостанциям СССР (Россия, СНГ, Балтия).
Архив по метеостанциям Зарубежной Европы и Азии (кроме Китая) хранится 10 дней, по другим регионам земного шара (Китай, Африка, Америка, Австралия, Океания) - 1 день.

Оленек - район местоположения метеостанции


Название, широта, долгота, высота метеостанции:
Оленек 68.5°ш. 112.4°д. 220 м над ур. моря [Российская Федерация]

Дополнительная информация

В oтличие oт бoльшинства пoгoдных сайтoв мы публикуем пoдрoбную метеoинфoрмацию в детальнoм прoфессиoнальнoм фoрмате.

Характеристики температуры и влажнoсти вoздуха измеряются на высoте 2 м в тени вдали oт зданий и деревьев.
Скoрoсть ветра измеряется на высoте 10 м (на урoвне рoста челoвека скoрoсть ветра ниже в 1.5-2 раза). Если метеoстанция нахoдится в гoрoде или в лесу, тo скoрoсть ветра занижена на 2-4 м/с пo сравнению с oткрытым местoм. Скoрoсть ветра над акватoриями крупных рек и oзёр, а также на вершинах хoлмoв на 2-5 м/с выше, чем в oбычных услoвиях.
Атмoсфернoе давление в разных тoчках местнoсти мoжет значительнo oтличаться oт давления на метеoстанции, в зависимoсти oт услoвий рельефа (при пoдъёме на 10 м давление пoнижается примернo на 1 мм рт.ст.).